Weather in Saratovskiy

Russia / The Kabardino-Balkar Republic     43°43′42″N   43°46′47″E
temp.,
°C
wind,
m/s
gust,
m/s
humid.,
%
clouds,
%
prec.,
mm/h
press.,
hPa
HPBL,
m
17 may, mon
mon1700:00+17n116782 0.0 100411
03:00+16n1166100 0.0 100411
06:00+17ene00685 0.0 100434
09:00+24ene22520 0.0 1004417
12:00+28nne334350 0.0 10041112
15:00+28nnw434467 0.0 10041559
18:00+23ssw4468100 0.8 1006101
21:00+18wnw4990100 4.8 1006177
18 may, tue
tue1800:00+17nw8158591 0.1 1007452
03:00+16wnw3791100 2.2 1009261
06:00+16wnw5108783 0.6 1010520
09:00+16wnw71281100 0.8 1010632
12:00+18nw587194 0.3 1012679
15:00+18ssw2377100 1.0 1012532
18:00+18sse227472 0.0 1012441
21:00+15s22876 0.0 101323
19 may, wed
wed1900:00+14sw22875 0.0 101211
03:00+13ssw118586 0.0 101111
06:00+14sse11756 0.0 101054
09:00+20nnw115727 0.0 1010523
12:00+20nnw986492 0.1 10111274
15:00+17n6985100 4.4 1014603
18:00+15wnw2389100 0.6 1016172
21:00+14ssw229199 0.6 101744
20 may, thu
thu2000:00+13sse22911 0.0 101719
03:00+11wsw01910 0.0 101810
06:00+12ssw11830 0.0 101970
09:00+18ese357111 0.0 1019786
12:00+22ese44543 0.0 10171521
15:00+23e55502 0.0 10171737
18:00+21e58610 0.0 1017351
21:00+15sse33720 0.0 101826
21 may, fri
fri2100:00+14sse11810 0.0 101710
03:00+12ese22840 0.0 101711
06:00+14sse12790 0.0 101883
09:00+20ese57550 0.0 1017698
12:00+25ese67440 0.0 10161277
15:00+26ese67423 0.0 10151436
18:00+23e48572 0.0 1014237
21:00+17se33670 0.0 101531